Year,Month,Day,Hour,Minute,Value (Times are PST for temperature in C)
2006,07,24,00,00,18.90
2006,07,24,00,01,18.70
2006,07,24,00,02,18.40
2006,07,24,00,03,18.20
2006,07,24,00,04,17.90
2006,07,24,00,05,17.60
2006,07,24,00,06,17.40
2006,07,24,00,07,17.30
2006,07,24,00,08,17.10
2006,07,24,00,09,16.90
2006,07,24,00,10,16.70
2006,07,24,00,11,16.50
2006,07,24,00,12,16.40
2006,07,24,00,13,16.30
2006,07,24,00,14,16.20
2006,07,24,00,15,16.10
2006,07,24,00,16,16.10
2006,07,24,00,17,15.90
2006,07,24,00,18,15.90
2006,07,24,00,19,15.80
2006,07,24,00,20,15.80
2006,07,24,00,21,15.80
2006,07,24,00,22,15.80
2006,07,24,00,23,15.80
2006,07,24,00,24,15.80
2006,07,24,00,25,15.80
2006,07,24,00,26,15.80
2006,07,24,00,27,15.80
2006,07,24,00,28,15.80
2006,07,24,00,29,15.80
2006,07,24,00,30,15.80
2006,07,24,00,31,15.80
2006,07,24,00,32,15.80
2006,07,24,00,33,15.80
2006,07,24,00,34,15.80
2006,07,24,00,35,15.80
2006,07,24,00,36,15.80
2006,07,24,00,37,15.80
2006,07,24,00,38,15.80
2006,07,24,00,39,15.80
2006,07,24,00,40,15.80
2006,07,24,00,41,15.80
2006,07,24,00,42,15.80
2006,07,24,00,43,15.80
2006,07,24,00,44,15.90
2006,07,24,00,45,15.90
2006,07,24,00,46,16.00
2006,07,24,00,47,16.10
2006,07,24,00,48,16.20
2006,07,24,00,49,16.30
2006,07,24,00,50,16.30
2006,07,24,00,51,16.40
2006,07,24,00,52,16.40
2006,07,24,00,53,16.40
2006,07,24,00,54,16.40
2006,07,24,00,55,16.50
2006,07,24,00,56,16.60
2006,07,24,00,57,16.60
2006,07,24,00,58,16.70
2006,07,24,00,59,16.70
2006,07,24,01,00,16.70
2006,07,24,01,01,16.70
2006,07,24,01,02,16.80
2006,07,24,01,03,16.80
2006,07,24,01,04,16.90
2006,07,24,01,05,16.90
2006,07,24,01,06,16.90
2006,07,24,01,07,16.90
2006,07,24,01,08,17.00
2006,07,24,01,09,17.00
2006,07,24,01,10,17.00
2006,07,24,01,11,17.10
2006,07,24,01,12,17.10
2006,07,24,01,13,17.10
2006,07,24,01,14,17.10
2006,07,24,01,15,17.20
2006,07,24,01,16,17.20
2006,07,24,01,17,17.20
2006,07,24,01,18,17.20
2006,07,24,01,19,17.20
2006,07,24,01,20,17.20
2006,07,24,01,21,17.20
2006,07,24,01,22,17.20
2006,07,24,01,23,17.20
2006,07,24,01,24,17.20
2006,07,24,01,25,17.20
2006,07,24,01,26,17.20
2006,07,24,01,27,17.20
2006,07,24,01,28,17.30
2006,07,24,01,29,17.30
2006,07,24,01,30,17.30
2006,07,24,01,31,17.30
2006,07,24,01,32,17.30
2006,07,24,01,33,17.30
2006,07,24,01,34,17.30
2006,07,24,01,35,17.40
2006,07,24,01,36,17.50
2006,07,24,01,37,17.50
2006,07,24,01,38,17.60
2006,07,24,01,39,17.60
2006,07,24,01,40,17.70
2006,07,24,01,41,17.70
2006,07,24,01,42,17.70
2006,07,24,01,43,17.70
2006,07,24,01,44,17.70
2006,07,24,01,45,17.70
2006,07,24,01,46,17.70
2006,07,24,01,47,17.70
2006,07,24,01,48,17.70
2006,07,24,01,49,17.70
2006,07,24,01,50,17.70
2006,07,24,01,51,17.70
2006,07,24,01,52,17.60
2006,07,24,01,53,17.60
2006,07,24,01,54,17.70
2006,07,24,01,55,17.70
2006,07,24,01,56,17.70
2006,07,24,01,57,17.70
2006,07,24,01,58,17.70
2006,07,24,01,59,17.70
2006,07,24,02,00,17.80
2006,07,24,02,01,17.80
2006,07,24,02,02,17.80
2006,07,24,02,03,17.80
2006,07,24,02,04,17.80
2006,07,24,02,05,17.80
2006,07,24,02,06,17.80
2006,07,24,02,07,17.80
2006,07,24,02,08,17.80
2006,07,24,02,09,17.80
2006,07,24,02,10,17.80
2006,07,24,02,11,17.80
2006,07,24,02,12,17.80
2006,07,24,02,13,17.90
2006,07,24,02,14,17.90
2006,07,24,02,15,17.90
2006,07,24,02,16,17.90
2006,07,24,02,17,17.90
2006,07,24,02,18,17.90
2006,07,24,02,19,17.90
2006,07,24,02,20,17.90
2006,07,24,02,21,17.90
2006,07,24,02,22,17.90
2006,07,24,02,23,17.90
2006,07,24,02,24,17.90
2006,07,24,02,25,17.90
2006,07,24,02,26,17.90
2006,07,24,02,27,17.90
2006,07,24,02,28,17.90
2006,07,24,02,29,17.90
2006,07,24,02,30,17.90
2006,07,24,02,31,17.90
2006,07,24,02,32,18.00
2006,07,24,02,33,18.10
2006,07,24,02,34,18.10
2006,07,24,02,35,18.10
2006,07,24,02,36,18.10
2006,07,24,02,37,18.10
2006,07,24,02,38,18.10
2006,07,24,02,39,18.10
2006,07,24,02,40,18.10
2006,07,24,02,41,18.10
2006,07,24,02,42,18.20
2006,07,24,02,43,18.20
2006,07,24,02,44,18.20
2006,07,24,02,45,18.10
2006,07,24,02,46,18.10
2006,07,24,02,47,18.00
2006,07,24,02,48,17.90
2006,07,24,02,49,17.90
2006,07,24,02,50,17.80
2006,07,24,02,51,17.80
2006,07,24,02,52,17.80
2006,07,24,02,53,17.70
2006,07,24,02,54,17.70
2006,07,24,02,55,17.60
2006,07,24,02,56,17.50
2006,07,24,02,57,17.30
2006,07,24,02,58,17.20
2006,07,24,02,59,17.10
2006,07,24,03,00,17.00
2006,07,24,03,01,17.00
2006,07,24,03,02,16.90
2006,07,24,03,03,16.90
2006,07,24,03,04,16.90
2006,07,24,03,05,16.80
2006,07,24,03,06,16.80
2006,07,24,03,07,16.80
2006,07,24,03,08,16.70
2006,07,24,03,09,16.70
2006,07,24,03,10,16.70
2006,07,24,03,11,16.70
2006,07,24,03,12,16.60
2006,07,24,03,13,16.60
2006,07,24,03,14,16.50
2006,07,24,03,15,16.40
2006,07,24,03,16,16.40
2006,07,24,03,17,16.40
2006,07,24,03,18,16.40
2006,07,24,03,19,16.40
2006,07,24,03,20,16.30
2006,07,24,03,21,16.30
2006,07,24,03,22,16.30
2006,07,24,03,23,16.30
2006,07,24,03,24,16.30
2006,07,24,03,25,16.40
2006,07,24,03,26,16.40
2006,07,24,03,27,16.40
2006,07,24,03,28,16.40
2006,07,24,03,29,16.40
2006,07,24,03,30,16.40
2006,07,24,03,31,16.30
2006,07,24,03,32,16.20
2006,07,24,03,33,16.20
2006,07,24,03,34,16.20
2006,07,24,03,35,16.10
2006,07,24,03,36,16.10
2006,07,24,03,37,16.10
2006,07,24,03,38,16.10
2006,07,24,03,39,16.10
2006,07,24,03,40,16.10
2006,07,24,03,41,16.10
2006,07,24,03,42,16.10
2006,07,24,03,43,16.10
2006,07,24,03,44,16.10
2006,07,24,03,45,16.10
2006,07,24,03,46,16.10
2006,07,24,03,47,16.10
2006,07,24,03,48,16.10
2006,07,24,03,49,16.10
2006,07,24,03,50,16.10
2006,07,24,03,51,16.10
2006,07,24,03,52,16.20
2006,07,24,03,53,16.20
2006,07,24,03,54,16.20
2006,07,24,03,55,16.20
2006,07,24,03,56,16.30
2006,07,24,03,57,16.30
2006,07,24,03,58,16.30
2006,07,24,03,59,16.30
2006,07,24,04,00,16.40
2006,07,24,04,01,16.40
2006,07,24,04,02,16.40
2006,07,24,04,03,16.40
2006,07,24,04,04,16.30
2006,07,24,04,05,16.30
2006,07,24,04,06,16.10
2006,07,24,04,07,15.90
2006,07,24,04,08,15.80
2006,07,24,04,09,15.70
2006,07,24,04,10,15.50
2006,07,24,04,11,15.40
2006,07,24,04,12,15.30
2006,07,24,04,13,15.20
2006,07,24,04,14,15.10
2006,07,24,04,15,15.10
2006,07,24,04,16,15.00
2006,07,24,04,17,14.90
2006,07,24,04,18,14.80
2006,07,24,04,19,14.80
2006,07,24,04,20,14.80
2006,07,24,04,21,14.80
2006,07,24,04,22,14.70
2006,07,24,04,23,14.70
2006,07,24,04,24,14.70
2006,07,24,04,25,14.60
2006,07,24,04,26,14.60
2006,07,24,04,27,14.60
2006,07,24,04,28,14.60
2006,07,24,04,29,14.60
2006,07,24,04,30,14.50
2006,07,24,04,31,14.50
2006,07,24,04,32,14.50
2006,07,24,04,33,14.50
2006,07,24,04,34,14.40
2006,07,24,04,35,14.40
2006,07,24,04,36,14.40
2006,07,24,04,37,14.30
2006,07,24,04,38,14.30
2006,07,24,04,39,14.30
2006,07,24,04,40,14.30
2006,07,24,04,41,14.30
2006,07,24,04,42,14.20
2006,07,24,04,43,14.20
2006,07,24,04,44,14.20
2006,07,24,04,45,14.20
2006,07,24,04,46,14.20
2006,07,24,04,47,14.10
2006,07,24,04,48,14.10
2006,07,24,04,49,14.10
2006,07,24,04,50,14.00
2006,07,24,04,51,14.00
2006,07,24,04,52,14.00
2006,07,24,04,53,14.00
2006,07,24,04,54,14.00
2006,07,24,04,55,14.00
2006,07,24,04,56,14.00
2006,07,24,04,57,14.00
2006,07,24,04,58,14.00
2006,07,24,04,59,14.10
2006,07,24,05,00,14.10
2006,07,24,05,01,14.20
2006,07,24,05,02,14.20
2006,07,24,05,03,14.20
2006,07,24,05,04,14.20
2006,07,24,05,05,14.20
2006,07,24,05,06,14.20
2006,07,24,05,07,14.30
2006,07,24,05,08,14.30
2006,07,24,05,09,14.40
2006,07,24,05,10,14.40
2006,07,24,05,11,14.50
2006,07,24,05,12,14.50
2006,07,24,05,13,14.60
2006,07,24,05,14,14.60
2006,07,24,05,15,14.60
2006,07,24,05,16,14.60
2006,07,24,05,17,14.70
2006,07,24,05,18,14.70
2006,07,24,05,19,14.70
2006,07,24,05,20,14.70
2006,07,24,05,21,14.70
2006,07,24,05,22,14.80
2006,07,24,05,23,14.80
2006,07,24,05,24,14.80
2006,07,24,05,25,14.80
2006,07,24,05,26,14.80
2006,07,24,05,27,14.80
2006,07,24,05,28,14.90
2006,07,24,05,29,14.90
2006,07,24,05,30,15.00
2006,07,24,05,31,15.00
2006,07,24,05,32,15.00
2006,07,24,05,33,15.00
2006,07,24,05,34,15.10
2006,07,24,05,35,15.10
2006,07,24,05,36,15.10
2006,07,24,05,37,15.10
2006,07,24,05,38,15.10
2006,07,24,05,39,15.10
2006,07,24,05,40,15.10
2006,07,24,05,41,15.20
2006,07,24,05,42,15.20
2006,07,24,05,43,15.20
2006,07,24,05,44,15.20
2006,07,24,05,45,15.30
2006,07,24,05,46,15.30
2006,07,24,05,47,15.30
2006,07,24,05,48,15.30
2006,07,24,05,49,15.30
2006,07,24,05,50,15.30
2006,07,24,05,51,15.30
2006,07,24,05,52,15.30
2006,07,24,05,53,15.40
2006,07,24,05,54,15.40
2006,07,24,05,55,15.40
2006,07,24,05,56,15.50
2006,07,24,05,57,15.50
2006,07,24,05,58,15.50
2006,07,24,05,59,15.60
2006,07,24,06,00,15.60
2006,07,24,06,01,15.70
2006,07,24,06,02,15.70
2006,07,24,06,03,15.80
2006,07,24,06,04,15.80
2006,07,24,06,05,15.80
2006,07,24,06,06,15.80
2006,07,24,06,07,15.80
2006,07,24,06,08,15.90
2006,07,24,06,09,16.00
2006,07,24,06,10,16.10
2006,07,24,06,11,16.10
2006,07,24,06,12,16.10
2006,07,24,06,13,16.10
2006,07,24,06,14,16.20
2006,07,24,06,15,16.30
2006,07,24,06,16,16.30
2006,07,24,06,17,16.40
2006,07,24,06,18,16.40
2006,07,24,06,19,16.40
2006,07,24,06,20,16.40
2006,07,24,06,21,16.40
2006,07,24,06,22,16.40
2006,07,24,06,23,16.50
2006,07,24,06,24,16.60
2006,07,24,06,25,16.60
2006,07,24,06,26,16.60
2006,07,24,06,27,16.70
2006,07,24,06,28,16.70
2006,07,24,06,29,16.70
2006,07,24,06,30,16.70
2006,07,24,06,31,16.70
2006,07,24,06,32,16.70
2006,07,24,06,33,16.80
2006,07,24,06,34,16.90
2006,07,24,06,35,16.90
2006,07,24,06,36,17.00
2006,07,24,06,37,17.10
2006,07,24,06,38,17.20
2006,07,24,06,39,17.30
2006,07,24,06,40,17.40
2006,07,24,06,41,17.50
2006,07,24,06,42,17.50
2006,07,24,06,43,17.60
2006,07,24,06,44,17.70
2006,07,24,06,45,17.80
2006,07,24,06,46,17.80
2006,07,24,06,47,17.90
2006,07,24,06,48,17.90
2006,07,24,06,49,17.90
2006,07,24,06,50,18.00
2006,07,24,06,51,18.10
2006,07,24,06,52,18.20
2006,07,24,06,53,18.30
2006,07,24,06,54,18.40
2006,07,24,06,55,18.50
2006,07,24,06,56,18.60
2006,07,24,06,57,18.60
2006,07,24,06,58,18.70
2006,07,24,06,59,18.80
2006,07,24,07,00,18.90
2006,07,24,07,01,18.90
2006,07,24,07,02,18.90
2006,07,24,07,03,18.90
2006,07,24,07,04,18.90
2006,07,24,07,05,18.90
2006,07,24,07,06,19.00
2006,07,24,07,07,19.10
2006,07,24,07,08,19.10
2006,07,24,07,09,19.10
2006,07,24,07,10,19.10
2006,07,24,07,11,19.20
2006,07,24,07,12,19.20
2006,07,24,07,13,19.30
2006,07,24,07,14,19.40
2006,07,24,07,15,19.40
2006,07,24,07,16,19.50
2006,07,24,07,17,19.50
2006,07,24,07,18,19.50
2006,07,24,07,19,19.50
2006,07,24,07,20,19.60
2006,07,24,07,21,19.60
2006,07,24,07,22,19.60
2006,07,24,07,23,19.70
2006,07,24,07,24,19.80
2006,07,24,07,25,19.90
2006,07,24,07,26,20.10
2006,07,24,07,27,20.30
2006,07,24,07,28,20.40
2006,07,24,07,29,20.50
2006,07,24,07,30,20.60
2006,07,24,07,31,20.70
2006,07,24,07,32,20.80
2006,07,24,07,33,20.90
2006,07,24,07,34,21.00
2006,07,24,07,35,21.10
2006,07,24,07,36,21.10
2006,07,24,07,37,21.10
2006,07,24,07,38,21.20
2006,07,24,07,39,21.20
2006,07,24,07,40,21.30
2006,07,24,07,41,21.30
2006,07,24,07,42,21.30
2006,07,24,07,43,21.30
2006,07,24,07,44,21.40
2006,07,24,07,45,21.40
2006,07,24,07,46,21.10
2006,07,24,07,47,20.60
2006,07,24,07,48,20.00
2006,07,24,07,49,19.30
2006,07,24,07,50,18.70
2006,07,24,07,51,18.30
2006,07,24,07,52,17.90
2006,07,24,07,53,17.60
2006,07,24,07,54,17.30
2006,07,24,07,55,17.20
2006,07,24,07,56,17.00
2006,07,24,07,57,17.00
2006,07,24,07,58,16.90
2006,07,24,07,59,16.90
2006,07,24,08,00,16.90
2006,07,24,08,01,16.90
2006,07,24,08,02,16.90
2006,07,24,08,03,17.00
2006,07,24,08,04,17.00
2006,07,24,08,05,17.00
2006,07,24,08,06,17.00
2006,07,24,08,07,17.10
2006,07,24,08,08,17.10
2006,07,24,08,09,17.10
2006,07,24,08,10,17.10
2006,07,24,08,11,17.20
2006,07,24,08,12,17.20
2006,07,24,08,13,17.20
2006,07,24,08,14,17.20
2006,07,24,08,15,17.20
2006,07,24,08,16,17.20
2006,07,24,08,17,17.20
2006,07,24,08,18,17.10
2006,07,24,08,19,17.10
2006,07,24,08,20,17.10
2006,07,24,08,21,17.10
2006,07,24,08,22,17.10
2006,07,24,08,23,17.00
2006,07,24,08,24,17.00
2006,07,24,08,25,17.00
2006,07,24,08,26,17.00
2006,07,24,08,27,17.00
2006,07,24,08,28,16.90
2006,07,24,08,29,16.90
2006,07,24,08,30,16.80
2006,07,24,08,31,16.80
2006,07,24,08,32,16.70
2006,07,24,08,33,16.70
2006,07,24,08,34,16.60
2006,07,24,08,35,16.60
2006,07,24,08,36,16.60
2006,07,24,08,37,16.60
2006,07,24,08,38,16.60
2006,07,24,08,39,16.60
2006,07,24,08,40,16.70
2006,07,24,08,41,16.70
2006,07,24,08,42,16.80
2006,07,24,08,43,16.90
2006,07,24,08,44,17.00
2006,07,24,08,45,17.10
2006,07,24,08,46,17.20
2006,07,24,08,47,17.20
2006,07,24,08,48,17.30
2006,07,24,08,49,17.40
2006,07,24,08,50,17.50
2006,07,24,08,51,17.60
2006,07,24,08,52,17.70
2006,07,24,08,53,17.90
2006,07,24,08,54,18.10
2006,07,24,08,55,18.20
2006,07,24,08,56,18.30
2006,07,24,08,57,18.40
2006,07,24,08,58,18.60
2006,07,24,08,59,18.70
2006,07,24,09,00,18.80
2006,07,24,09,01,18.90
2006,07,24,09,02,19.00
2006,07,24,09,03,19.10
2006,07,24,09,04,19.20
2006,07,24,09,05,19.30
2006,07,24,09,06,19.40
2006,07,24,09,07,19.50
2006,07,24,09,08,19.60
2006,07,24,09,09,19.70
2006,07,24,09,10,19.80
2006,07,24,09,11,19.90
2006,07,24,09,12,20.00
2006,07,24,09,13,20.10
2006,07,24,09,14,20.20
2006,07,24,09,15,20.30
2006,07,24,09,16,20.40
2006,07,24,09,17,20.50
2006,07,24,09,18,20.50
2006,07,24,09,19,20.50
2006,07,24,09,20,20.60
2006,07,24,09,21,20.60
2006,07,24,09,22,20.70
2006,07,24,09,23,20.80
2006,07,24,09,24,20.80
2006,07,24,09,25,20.90
2006,07,24,09,26,21.00
2006,07,24,09,27,21.00
2006,07,24,09,28,21.10
2006,07,24,09,29,21.20
2006,07,24,09,30,21.30
2006,07,24,09,31,21.30
2006,07,24,09,32,21.40
2006,07,24,09,33,21.50
2006,07,24,09,34,21.60
2006,07,24,09,35,21.70
2006,07,24,09,36,21.80
2006,07,24,09,37,22.00
2006,07,24,09,38,22.10
2006,07,24,09,39,22.20
2006,07,24,09,40,22.40
2006,07,24,09,41,22.60
2006,07,24,09,42,22.90
2006,07,24,09,43,23.00
2006,07,24,09,44,23.20
2006,07,24,09,45,23.30
2006,07,24,09,46,23.40
2006,07,24,09,47,23.50
2006,07,24,09,48,23.60
2006,07,24,09,49,23.70
2006,07,24,09,50,23.70
2006,07,24,09,51,23.80
2006,07,24,09,52,23.80
2006,07,24,09,53,23.80
2006,07,24,09,54,23.90
2006,07,24,09,55,23.90
2006,07,24,09,56,23.90
2006,07,24,09,57,23.90
2006,07,24,09,58,23.90
2006,07,24,09,59,23.90
2006,07,24,10,00,24.00
2006,07,24,10,01,24.00
2006,07,24,10,02,24.00
2006,07,24,10,03,24.10
2006,07,24,10,04,24.10
2006,07,24,10,05,24.10
2006,07,24,10,06,24.10
2006,07,24,10,07,24.10
2006,07,24,10,08,24.10
2006,07,24,10,09,24.00
2006,07,24,10,10,23.90
2006,07,24,10,11,23.80
2006,07,24,10,12,23.70
2006,07,24,10,13,23.60
2006,07,24,10,14,23.60
2006,07,24,10,15,23.60
2006,07,24,10,16,23.60
2006,07,24,10,17,23.50
2006,07,24,10,18,23.40
2006,07,24,10,19,23.30
2006,07,24,10,20,23.30
2006,07,24,10,21,23.30
2006,07,24,10,22,23.20
2006,07,24,10,23,23.20
2006,07,24,10,24,23.30
2006,07,24,10,25,23.40
2006,07,24,10,26,23.50
2006,07,24,10,27,23.70
2006,07,24,10,28,23.70
2006,07,24,10,29,23.70
2006,07,24,10,30,23.70
2006,07,24,10,31,23.60
2006,07,24,10,32,23.60
2006,07,24,10,33,23.70
2006,07,24,10,34,23.70
2006,07,24,10,35,23.80
2006,07,24,10,36,23.90
2006,07,24,10,37,23.90
2006,07,24,10,38,23.90
2006,07,24,10,39,23.90
2006,07,24,10,40,23.90
2006,07,24,10,41,23.90
2006,07,24,10,42,24.00
2006,07,24,10,43,24.10
2006,07,24,10,44,24.10
2006,07,24,10,45,24.20
2006,07,24,10,46,24.20
2006,07,24,10,47,24.30
2006,07,24,10,48,24.30
2006,07,24,10,49,24.30
2006,07,24,10,50,24.30
2006,07,24,10,51,24.10
2006,07,24,10,52,24.00
2006,07,24,10,53,23.90
2006,07,24,10,54,23.90
2006,07,24,10,55,23.90
2006,07,24,10,56,23.90
2006,07,24,10,57,23.90
2006,07,24,10,58,24.10
2006,07,24,10,59,24.10
2006,07,24,11,00,24.10
2006,07,24,11,01,24.10
2006,07,24,11,02,23.90
2006,07,24,11,03,23.70
2006,07,24,11,04,23.50
2006,07,24,11,05,23.40
2006,07,24,11,06,23.30
2006,07,24,11,07,23.20
2006,07,24,11,08,23.10
2006,07,24,11,09,23.10
2006,07,24,11,10,23.10
2006,07,24,11,11,23.00
2006,07,24,11,12,22.90
2006,07,24,11,13,22.90
2006,07,24,11,14,22.90
2006,07,24,11,15,22.90
2006,07,24,11,16,23.00
2006,07,24,11,17,23.10
2006,07,24,11,18,23.20
2006,07,24,11,19,23.30
2006,07,24,11,20,23.20
2006,07,24,11,21,23.10
2006,07,24,11,22,23.10
2006,07,24,11,23,23.10
2006,07,24,11,24,23.10
2006,07,24,11,25,23.00
2006,07,24,11,26,22.80
2006,07,24,11,27,22.50
2006,07,24,11,28,22.20
2006,07,24,11,29,22.10
2006,07,24,11,30,21.90
2006,07,24,11,31,21.70
2006,07,24,11,32,21.40
2006,07,24,11,33,21.20
2006,07,24,11,34,21.10
2006,07,24,11,35,20.90
2006,07,24,11,36,20.80
2006,07,24,11,37,20.70
2006,07,24,11,38,20.60
2006,07,24,11,39,20.50
2006,07,24,11,40,20.50
2006,07,24,11,41,20.50
2006,07,24,11,42,20.50
2006,07,24,11,43,20.50
2006,07,24,11,44,20.60
2006,07,24,11,45,20.70
2006,07,24,11,46,20.70
2006,07,24,11,47,20.70
2006,07,24,11,48,20.70
2006,07,24,11,49,20.80
2006,07,24,11,50,20.80
2006,07,24,11,51,21.00
2006,07,24,11,52,21.10
2006,07,24,11,53,21.30
2006,07,24,11,54,21.40
2006,07,24,11,55,21.50
2006,07,24,11,56,21.60
2006,07,24,11,57,21.60
2006,07,24,11,58,21.60
2006,07,24,11,59,21.60
2006,07,24,12,00,21.60
2006,07,24,12,01,21.60
2006,07,24,12,02,21.60
2006,07,24,12,03,21.60
2006,07,24,12,04,21.50
2006,07,24,12,05,21.50
2006,07,24,12,06,21.60
2006,07,24,12,07,21.60
2006,07,24,12,08,21.70
2006,07,24,12,09,21.80
2006,07,24,12,10,21.90
2006,07,24,12,11,22.10
2006,07,24,12,12,22.30
2006,07,24,12,13,22.30
2006,07,24,12,14,22.40
2006,07,24,12,15,22.30
2006,07,24,12,16,22.40
2006,07,24,12,17,22.40
2006,07,24,12,18,22.60
2006,07,24,12,19,22.60
2006,07,24,12,20,22.60
2006,07,24,12,21,22.60
2006,07,24,12,22,22.70
2006,07,24,12,23,22.70
2006,07,24,12,24,22.80
2006,07,24,12,25,22.90
2006,07,24,12,26,22.90
2006,07,24,12,27,23.00
2006,07,24,12,28,23.10
2006,07,24,12,29,23.10
2006,07,24,12,30,22.90
2006,07,24,12,31,23.00
2006,07,24,12,32,23.10
2006,07,24,12,33,23.10
2006,07,24,12,34,23.20
2006,07,24,12,35,23.30
2006,07,24,12,36,23.30
2006,07,24,12,37,23.40
2006,07,24,12,38,23.60
2006,07,24,12,39,23.70
2006,07,24,12,40,23.70
2006,07,24,12,41,23.70
2006,07,24,12,42,23.70
2006,07,24,12,43,23.70
2006,07,24,12,44,23.80
2006,07,24,12,45,23.90
2006,07,24,12,46,23.70
2006,07,24,12,47,23.70
2006,07,24,12,48,23.90
2006,07,24,12,49,23.90
2006,07,24,12,50,24.00
2006,07,24,12,51,24.10
2006,07,24,12,52,24.10
2006,07,24,12,53,24.00
2006,07,24,12,54,24.10
2006,07,24,12,55,24.20
2006,07,24,12,56,24.30
2006,07,24,12,57,24.20
2006,07,24,12,58,24.10
2006,07,24,12,59,24.00
2006,07,24,13,00,23.90
2006,07,24,13,01,23.90
2006,07,24,13,02,23.80
2006,07,24,13,03,23.80
2006,07,24,13,04,23.90
2006,07,24,13,05,23.90
2006,07,24,13,06,23.90
2006,07,24,13,07,23.90
2006,07,24,13,08,23.90
2006,07,24,13,09,24.00
2006,07,24,13,10,24.10
2006,07,24,13,11,24.20
2006,07,24,13,12,24.30
2006,07,24,13,13,24.40
2006,07,24,13,14,24.50
2006,07,24,13,15,24.60
2006,07,24,13,16,24.50
2006,07,24,13,17,24.60
2006,07,24,13,18,24.60
2006,07,24,13,19,24.60
2006,07,24,13,20,24.60
2006,07,24,13,21,24.60
2006,07,24,13,22,24.60
2006,07,24,13,23,24.70
2006,07,24,13,24,24.70
2006,07,24,13,25,24.70
2006,07,24,13,26,24.80
2006,07,24,13,27,24.80
2006,07,24,13,28,24.90
2006,07,24,13,29,24.90
2006,07,24,13,30,24.90
2006,07,24,13,31,25.00
2006,07,24,13,32,24.90
2006,07,24,13,33,25.00
2006,07,24,13,34,25.00
2006,07,24,13,35,25.00
2006,07,24,13,36,25.00
2006,07,24,13,37,25.10
2006,07,24,13,38,25.10
2006,07,24,13,39,25.30
2006,07,24,13,40,25.40
2006,07,24,13,41,25.50
2006,07,24,13,42,25.60
2006,07,24,13,43,25.50
2006,07,24,13,44,25.50
2006,07,24,13,45,25.50
2006,07,24,13,46,25.40
2006,07,24,13,47,25.40
2006,07,24,13,48,25.20
2006,07,24,13,49,25.10
2006,07,24,13,50,25.30
2006,07,24,13,51,25.50
2006,07,24,13,52,25.50
2006,07,24,13,53,25.60
2006,07,24,13,54,25.50
2006,07,24,13,55,25.50
2006,07,24,13,56,25.50
2006,07,24,13,57,25.50
2006,07,24,13,58,25.50
2006,07,24,13,59,25.60
2006,07,24,14,00,25.70
2006,07,24,14,01,25.80
2006,07,24,14,02,25.90
2006,07,24,14,03,25.90
2006,07,24,14,04,25.90
2006,07,24,14,05,26.00
2006,07,24,14,06,26.00
2006,07,24,14,07,26.00
2006,07,24,14,08,26.10
2006,07,24,14,09,26.20
2006,07,24,14,10,26.10
2006,07,24,14,11,26.20
2006,07,24,14,12,26.30
2006,07,24,14,13,26.40
2006,07,24,14,14,26.40
2006,07,24,14,15,26.40
2006,07,24,14,16,26.30
2006,07,24,14,17,26.40
2006,07,24,14,18,26.50
2006,07,24,14,19,26.60
2006,07,24,14,20,26.40
2006,07,24,14,21,26.40
2006,07,24,14,22,26.20
2006,07,24,14,23,26.00
2006,07,24,14,24,26.10
2006,07,24,14,25,26.00
2006,07,24,14,26,26.00
2006,07,24,14,27,25.70
2006,07,24,14,28,25.50
2006,07,24,14,29,25.50
2006,07,24,14,30,25.40
2006,07,24,14,31,25.40
2006,07,24,14,32,25.50
2006,07,24,14,33,25.60
2006,07,24,14,34,25.60
2006,07,24,14,35,25.60
2006,07,24,14,36,25.70
2006,07,24,14,37,25.60
2006,07,24,14,38,25.70
2006,07,24,14,39,25.80
2006,07,24,14,40,25.80
2006,07,24,14,41,25.90
2006,07,24,14,42,26.00
2006,07,24,14,43,25.90
2006,07,24,14,44,26.00
2006,07,24,14,45,26.00
2006,07,24,14,46,26.00
2006,07,24,14,47,25.90
2006,07,24,14,48,25.90
2006,07,24,14,49,26.00
2006,07,24,14,50,26.10
2006,07,24,14,51,26.10
2006,07,24,14,52,26.00
2006,07,24,14,53,26.10
2006,07,24,14,54,26.00
2006,07,24,14,55,26.00
2006,07,24,14,56,26.00
2006,07,24,14,57,26.10
2006,07,24,14,58,26.10
2006,07,24,14,59,26.20
2006,07,24,15,00,26.30
2006,07,24,15,01,26.30
2006,07,24,15,02,26.20
2006,07,24,15,03,26.10
2006,07,24,15,04,26.10
2006,07,24,15,05,26.20
2006,07,24,15,06,26.30
2006,07,24,15,07,26.40
2006,07,24,15,08,26.40
2006,07,24,15,09,26.30
2006,07,24,15,10,26.20
2006,07,24,15,11,26.20
2006,07,24,15,12,26.20
2006,07,24,15,13,26.20
2006,07,24,15,14,26.10
2006,07,24,15,15,26.20
2006,07,24,15,16,26.10
2006,07,24,15,17,26.20
2006,07,24,15,18,26.20
2006,07,24,15,19,26.20
2006,07,24,15,20,26.20
2006,07,24,15,21,26.10
2006,07,24,15,22,26.10
2006,07,24,15,23,26.10
2006,07,24,15,24,26.10
2006,07,24,15,25,26.00
2006,07,24,15,26,26.00
2006,07,24,15,27,26.20
2006,07,24,15,28,26.30
2006,07,24,15,29,26.30
2006,07,24,15,30,26.40
2006,07,24,15,31,26.40
2006,07,24,15,32,26.40
2006,07,24,15,33,26.60
2006,07,24,15,34,26.60
2006,07,24,15,35,26.40
2006,07,24,15,36,26.40
2006,07,24,15,37,26.30
2006,07,24,15,38,26.40
2006,07,24,15,39,26.50
2006,07,24,15,40,26.60
2006,07,24,15,41,26.60
2006,07,24,15,42,26.50
2006,07,24,15,43,26.40
2006,07,24,15,44,26.20
2006,07,24,15,45,26.20
2006,07,24,15,46,26.20
2006,07,24,15,47,26.10
2006,07,24,15,48,26.10
2006,07,24,15,49,26.10
2006,07,24,15,50,26.00
2006,07,24,15,51,25.90
2006,07,24,15,52,25.90
2006,07,24,15,53,25.90
2006,07,24,15,54,25.90
2006,07,24,15,55,25.90
2006,07,24,15,56,25.90
2006,07,24,15,57,26.00
2006,07,24,15,58,26.00
2006,07,24,15,59,26.00
2006,07,24,16,00,26.10
2006,07,24,16,01,26.20
2006,07,24,16,02,26.20
2006,07,24,16,03,26.30
2006,07,24,16,04,26.50
2006,07,24,16,05,26.60
2006,07,24,16,06,26.50
2006,07,24,16,07,26.40
2006,07,24,16,08,26.40
2006,07,24,16,09,26.40
2006,07,24,16,10,26.40
2006,07,24,16,11,26.40
2006,07,24,16,12,26.40
2006,07,24,16,13,26.40
2006,07,24,16,14,26.30
2006,07,24,16,15,26.30
2006,07,24,16,16,26.30
2006,07,24,16,17,26.40
2006,07,24,16,18,26.50
2006,07,24,16,19,26.60
2006,07,24,16,20,26.60
2006,07,24,16,21,26.60
2006,07,24,16,22,26.70
2006,07,24,16,23,26.60
2006,07,24,16,24,26.60
2006,07,24,16,25,26.60
2006,07,24,16,26,26.60
2006,07,24,16,27,26.60
2006,07,24,16,28,26.60
2006,07,24,16,29,26.70
2006,07,24,16,30,26.80
2006,07,24,16,31,26.80
2006,07,24,16,32,26.80
2006,07,24,16,33,26.80
2006,07,24,16,34,26.70
2006,07,24,16,35,26.70
2006,07,24,16,36,26.70
2006,07,24,16,37,26.70
2006,07,24,16,38,26.60
2006,07,24,16,39,26.60
2006,07,24,16,40,26.50
2006,07,24,16,41,26.40
2006,07,24,16,42,26.40
2006,07,24,16,43,26.40
2006,07,24,16,44,26.40
2006,07,24,16,45,26.30
2006,07,24,16,46,26.30
2006,07,24,16,47,26.30
2006,07,24,16,48,26.10
2006,07,24,16,49,26.10
2006,07,24,16,50,26.00
2006,07,24,16,51,26.00
2006,07,24,16,52,25.90
2006,07,24,16,53,25.90
2006,07,24,16,54,25.80
2006,07,24,16,55,25.90
2006,07,24,16,56,25.90
2006,07,24,16,57,25.90
2006,07,24,16,58,25.80
2006,07,24,16,59,25.70
2006,07,24,17,00,25.70
2006,07,24,17,01,25.50
2006,07,24,17,02,25.40
2006,07,24,17,03,25.30
2006,07,24,17,04,25.20
2006,07,24,17,05,25.20
2006,07,24,17,06,25.10
2006,07,24,17,07,25.10
2006,07,24,17,08,25.10
2006,07,24,17,09,25.20
2006,07,24,17,10,25.10
2006,07,24,17,11,25.10
2006,07,24,17,12,25.20
2006,07,24,17,13,25.20
2006,07,24,17,14,25.20
2006,07,24,17,15,25.20
2006,07,24,17,16,25.20
2006,07,24,17,17,25.10
2006,07,24,17,18,25.10
2006,07,24,17,19,25.10